Location: Unspecified
(39.1524°N, 0.0000°E)
Time: 08:15:47
(UTC+00:00)

Cosmos 990 Rocket - Visible Passes

Search period start: 04 April 2026 00:00
Search period end: 14 April 2026 00:00
Orbit: 743 x 763 km, 74.0° (Epoch: 29 March)

Date Brightness Start Highest point End Pass type
(mag) Time Alt. Az. Time Alt. Az. Time Alt. Az.
4 Apr 7.5 04:31:10 10° NE 04:31:53 10° NE 04:32:35 10° ENE visible
4 Apr 4.8 19:01:42 10° SSE 19:06:01 28° E 19:10:21 10° NE visible
4 Apr 5.7 20:42:59 10° SW 20:47:36 32° WNW 20:52:14 10° N visible
5 Apr 4.5 20:00:43 10° SSW 20:05:50 62° WNW 20:10:57 10° NNE visible
6 Apr 6.7 04:46:48 10° N 04:50:52 23° ENE 04:54:55 10° ESE visible
6 Apr 3.9 19:19:05 10° S 19:24:12 69° ESE 19:29:20 10° NNE visible
6 Apr 6.9 21:03:35 10° W 21:06:27 15° WNW 21:09:19 10° NNW visible
7 Apr 7.2 04:06:32 10° NNE 04:08:50 13° NE 04:11:08 10° E visible
7 Apr 6.2 20:20:08 10° WSW 20:24:27 26° WNW 20:28:47 10° N visible
8 Apr 4.9 05:04:31 10° N 05:09:32 53° ENE 05:14:32 10° SE visible
8 Apr 5.0 19:37:38 10° SW 19:42:38 49° WNW 19:47:37 10° N visible
9 Apr 6.2 04:23:18 10° N 04:27:43 28° ENE 04:32:08 10° ESE visible
9 Apr 4.0 18:55:47 10° SSW 19:00:57 86° ESE 19:06:07 10° NNE visible
9 Apr 7.3 20:41:28 10° WNW 20:43:23 12° NW 20:45:18 10° NNW visible
10 Apr 7.1 03:42:39 10° NNE 03:45:45 16° ENE 03:48:51 10° E visible
10 Apr 6.7 19:57:24 10° WSW 20:01:19 22° WNW 20:05:15 10° N visible
11 Apr 4.4 04:41:13 10° NNW 04:46:19 68° ENE 04:51:24 10° SSE visible
11 Apr 5.6 19:14:38 10° SW 19:19:27 39° WNW 19:24:16 10° N visible
12 Apr 5.7 03:59:52 10° N 04:04:34 35° ENE 04:09:14 10° SE visible
13 Apr 6.7 03:18:58 10° NNE 03:22:39 19° ENE 03:26:19 10° ESE visible
13 Apr 7.0 19:34:47 10° W 19:38:12 18° WNW 19:41:38 10° NNW visible
